Temperature
24 25 26 27 27 27 27 26 27 28 28 27 28 28 28 27 26 27 26 23 22 19 19 18 16 16 16 16 17 17 19 18 16 16 16 15 16 15 15 15 15 14 14 14
24 24 27 27 26 26 25 25 26 27 27 27 27 27 28 27 26 26 26 23 20 19 17 17 16 16 16 16 17 18 18 17 16 15 15 15 14 14 14 14 14 13 13 13
24 26 26 25 25 24 25 25 26 26 27 26 26 26 27 27 25 25 24 24 21 18 17 16 16 15 15 15 16 17 16 16 15 15 15 15 15 14 13 13 13 13 12 12
25 26 25 25 25 25 25 26 25 25 25 26 26 24 27 27 26 25 24 23 22 18 16 16 15 15 14 14 16 16 16 15 15 15 15 14 13 13 13 12 12 11 11 10
25 26 25 24 25 25 26 26 25 25 25 25 25 24 27 27 27 27 25 23 22 20 16 15 14 14 14 14 14 15 15 14 14 14 13 13 13 12 12 11 10 9 8 7
26 26 26 26 26 26 26 25 25 25 25 23 24 25 26 28 27 28 27 23 21 19 16 14 13 13 13 13 13 13 14 14 13 13 13 13 13 12 11 10 9 9 8 7
24 25 26 26 26 25 25 24 24 24 24 24 26 26 26 28 28 27 26 22 20 17 14 12 12 12 13 12 13 13 14 13 13 13 13 13 12 11 10 10 8 8 8 7
24 23 26 25 25 25 25 24 23 23 24 25 25 25 27 27 25 23 24 21 17 14 12 11 12 12 12 12 12 12 13 12 11 12 12 12 11 11 9 10 8 7 7 6
26 25 26 26 26 26 23 25 25 24 24 23 24 26 26 26 23 22 22 18 13 11 11 11 11 12 11 11 11 11 11 11 11 11 12 11 11 10 9 7 6 6 6 6
24 23 25 26 26 26 24 26 24 23 21 21 24 25 26 25 24 23 21 15 12 11 10 10 10 10 10 11 11 11 11 11 11 11 11 11 10 7 6 5 5 6 5 5
24 23 24 25 24 25 25 24 24 24 25 23 22 25 24 25 23 24 21 14 11 11 10 10 10 9 10 10 10 10 11 12 12 11 10 8 7 6 5 5 6 5 5 5
22 22 23 25 25 25 25 25 25 24 23 24 23 24 22 21 21 22 20 13 11 11 11 10 9 9 10 11 11 10 9 10 11 9 8 7 7 5 5 5 5 5 5 5
20 22 22 23 23 24 24 24 24 23 23 24 23 24 21 20 21 21 18 12 11 10 9 9 9 10 10 10 10 9 10 10 9 8 7 6 5 5 5 5 5 5 5 5
18 21 21 21 22 22 22 22 23 23 23 23 24 24 23 20 20 20 17 12 11 9 8 9 9 10 10 9 9 9 9 9 8 7 6 5 5 5 5 5 5 5 5 5
20 21 21 21 21 21 21 21 22 22 23 22 23 24 24 23 20 19 16 12 11 9 8 8 8 8 8 8 8 9 9 9 8 6 6 6 5 5 5 5 5 5 5 5
18 20 19 20 21 20 20 21 21 21 22 22 22 23 23 21 20 18 15 12 11 9 8 8 8 7 8 8 9 8 8 6 6 6 6 6 5 5 5 5 5 5 4 4
18 18 18 19 20 19 19 20 21 21 22 22 22 21 20 20 19 17 15 12 11 9 8 8 7 6 6 6 6 7 7 6 6 6 6 6 6 6 5 5 5 4 4 3
16 16 17 18 17 16 18 18 18 18 19 18 19 19 18 18 17 14 13 12 10 8 7 6 5 5 6 5 6 6 6 5 6 6 6 6 6 6 5 4 4 3 3 2
15 15 17 16 16 17 19 16 17 16 17 16 15 16 15 13 11 11 10 10 9 8 7 6 5 5 4 5 5 4 5 6 6 6 6 6 5 5 4 4 3 2 2 2
14 14 15 15 14 15 16 15 15 15 16 15 14 14 13 12 13 11 8 8 8 7 6 5 5 4 4 4 4 5 5 6 6 6 5 5 4 4 3 2 2 1 1 1
14 14 14 14 13 16 15 14 15 15 14 13 13 13 12 10 9 8 7 7 7 6 5 5 4 4 3 4 4 4 5 5 5 5 4 4 3 3 2 2 1 1 0 0
15 15 14 15 13 11 13 14 14 14 12 12 12 12 9 8 7 6 6 6 6 5 5 4 4 3 3 4 4 5 5 4 4 4 3 3 2 2 2 1 1 1 0 -0
11 13 14 14 14 14 13 13 12 12 12 12 11 11 8 6 6 5 5 5 5 5 4 4 4 4 5 5 5 5 5 4 4 3 3 2 2 1 1 1 1 1 -0 -1
13 12 13 13 13 14 13 12 12 11 11 11 10 8 7 5 4 4 5 4 4 4 5 5 5 6 5 5 5 5 4 4 3 3 2 2 1 1 1 1 1 -0 -1 -1
12 11 11 12 13 13 13 12 11 9 9 8 7 7 5 4 5 5 5 5 5 6 6 6 6 6 6 5 5 5 4 3 3 3 2 2 2 1 1 -0 -0 -1 -1 -1
12 12 11 12 12 11 11 9 8 7 7 5 5 5 5 6 6 6 6 6 6 6 6 6 6 6 6 5 5 4 4 3 3 3 3 2 2 1 0 -0 -0 -0 -1 -1
Wind_Speed
11 12 16 18 17 15 10 11 13 12 7 8 12 11 8 9 12 14 14 13 16 16 16 12 10 8 7 5 5 7 9 9 9 8 8 8 7 7 8 9 10 11 10 9
10 16 16 11 10 13 14 15 16 14 9 7 11 13 13 11 15 15 16 16 17 15 15 14 13 11 9 7 7 8 9 9 8 7 6 6 8 7 8 9 10 10 9 8
18 10 8 10 12 14 16 16 17 14 11 11 14 18 19 15 14 14 16 18 19 18 18 15 14 12 10 8 9 9 9 9 9 10 10 9 10 8 6 5 4 5 5 5
15 15 9 13 15 16 16 16 16 17 16 12 9 13 13 14 15 15 17 19 20 19 18 16 14 13 12 11 12 13 12 12 12 10 10 9 7 5 4 4 2 2 3 5
13 12 15 16 16 16 14 11 12 15 16 15 13 12 14 10 14 19 19 19 20 20 19 18 18 17 15 15 14 15 15 14 13 10 10 9 8 6 4 3 2 2 2 4
15 7 10 12 10 11 11 11 11 12 13 15 17 15 14 12 13 16 18 18 18 18 17 17 17 17 14 15 14 15 15 14 13 11 10 9 9 5 3 1 4 4 3 3
16 14 12 11 10 10 12 12 10 12 13 15 14 12 12 10 7 8 10 17 17 17 18 19 18 16 15 15 15 15 14 14 12 11 9 8 6 4 1 2 3 4 2 2
13 14 17 15 18 16 15 16 14 11 13 11 6 6 8 4 1 2 8 17 17 18 19 19 17 16 15 15 14 15 14 13 11 10 8 6 4 3 2 5 2 2 2 3
7 9 6 11 16 17 13 13 17 16 17 13 12 12 7 8 5 5 12 18 18 19 18 17 16 14 14 13 13 15 15 14 11 9 8 6 6 6 5 4 1 1 2 3
8 9 10 11 12 15 14 12 8 12 14 14 14 12 7 7 9 12 16 17 17 19 18 16 14 12 13 14 13 14 14 13 10 9 8 6 6 5 2 1 2 3 3 4
6 8 10 7 11 17 13 15 14 11 11 12 14 10 1 2 4 11 16 17 19 19 18 18 15 14 13 15 14 13 12 11 10 9 7 3 4 1 2 3 3 4 5 5
1 4 11 11 3 6 11 11 15 13 13 12 13 9 3 3 6 10 15 17 20 19 18 17 16 15 15 14 14 12 10 10 10 6 3 3 3 1 3 4 4 5 6 7
2 4 9 12 7 6 6 6 9 10 11 12 13 7 3 1 4 11 15 17 17 17 16 14 15 14 14 13 11 11 10 9 6 4 3 2 1 2 4 4 4 6 7 10
2 4 6 7 4 3 1 3 4 8 11 13 13 5 4 2 4 10 14 16 17 17 16 14 12 13 12 11 10 9 9 7 5 4 3 1 2 3 4 5 6 8 10 13
3 5 5 6 5 6 6 9 9 11 11 10 10 6 4 1 6 8 12 15 17 16 15 14 13 13 11 10 9 8 7 6 4 3 2 1 1 2 4 7 9 10 11 11
1 4 6 11 10 11 15 16 16 17 16 16 17 15 6 2 6 9 12 16 17 17 16 14 13 13 11 9 8 7 6 4 2 1 1 1 2 4 6 8 9 8 8 8
3 5 8 12 10 10 14 12 13 13 14 14 13 8 6 4 6 8 10 14 15 16 15 14 12 9 8 8 8 6 7 3 1 2 2 2 3 5 6 7 6 6 7 8
6 7 7 9 6 10 1 6 5 7 6 8 10 9 10 9 4 4 7 10 13 14 13 13 11 10 8 7 7 3 4 3 2 2 3 3 4 5 5 5 7 8 8 9
6 8 6 6 10 10 2 5 6 6 1 8 10 10 8 5 1 2 3 3 10 14 14 14 12 10 9 7 5 1 2 4 2 3 3 4 4 5 5 7 8 8 8 8
4 7 7 6 6 4 4 6 5 5 3 9 12 12 9 3 4 2 6 10 14 15 15 15 11 10 9 7 3 1 1 1 2 4 5 5 5 5 6 7 7 7 7 8
8 8 9 9 7 4 5 7 4 5 5 12 13 13 6 2 3 6 11 13 15 16 16 14 12 8 6 6 5 2 1 4 3 4 6 5 4 4 5 6 6 6 6 6
5 5 7 6 8 5 7 8 5 10 14 14 13 9 6 8 10 12 13 15 16 16 15 12 10 10 8 6 5 4 5 5 5 5 5 4 4 6 6 6 5 4 6 7
3 3 3 4 4 5 7 8 11 13 15 13 10 1 9 12 14 15 15 15 14 14 12 12 12 11 8 5 5 7 6 6 6 5 4 5 6 7 6 5 5 7 7 7
4 4 5 6 7 8 12 13 12 12 13 8 2 7 14 17 16 16 15 13 12 13 14 14 12 12 9 7 6 7 7 6 4 4 4 5 6 5 6 6 8 8 8 8
4 3 9 13 12 11 8 7 10 8 3 6 11 13 17 18 16 16 14 14 13 13 11 11 11 11 9 7 8 8 6 5 5 5 6 6 6 6 7 7 8 8 8 6
6 6 9 10 10 8 11 11 7 3 13 15 16 17 15 16 17 18 16 15 13 13 12 11 10 9 9 10 9 8 6 5 4 4 6 6 7 7 6 5 3 3 2 1
Wind_Direction
197 217 221 222 224 251 268 260 254 246 252 266 257 253 234 243 233 226 211 200 205 193 205 176 175 163 152 134 109 112 120 137 149 153 144 125 116 111 101 88 78 75 69 59
197 230 240 242 225 226 234 242 250 253 251 256 259 253 251 242 239 231 220 211 212 195 199 188 180 175 169 144 125 121 128 136 145 135 116 118 117 99 88 86 78 74 73 65
223 231 227 215 217 224 232 243 252 257 255 254 260 257 248 231 232 236 232 222 204 202 197 184 186 174 167 148 128 124 122 121 115 115 116 115 116 119 117 109 113 100 78 43
232 239 206 216 225 227 241 239 251 261 260 263 249 271 250 221 223 231 232 223 211 194 198 183 168 162 152 148 137 131 125 117 112 118 123 133 132 131 136 147 138 121 34 354
226 219 221 226 232 231 245 249 245 253 255 263 255 256 260 230 237 232 224 217 208 193 186 177 161 150 150 150 141 133 125 118 115 120 128 132 127 135 150 143 193 270 353 2
244 212 226 234 230 233 232 239 240 246 249 250 247 251 258 224 224 242 211 201 198 189 163 152 146 142 145 143 136 127 121 121 125 131 134 128 121 125 137 84 319 325 349 13
230 225 225 231 227 205 220 231 236 227 231 244 242 241 253 257 240 259 197 185 183 158 144 144 145 143 145 143 137 131 132 129 130 122 114 105 107 111 103 60 8 317 338 18
229 230 220 217 228 225 213 230 246 257 257 261 160 238 261 233 274 259 188 166 156 148 148 148 149 147 149 146 144 139 133 125 116 102 93 83 53 48 48 70 43 295 350 22
242 232 192 213 220 231 233 227 247 264 270 270 260 259 250 215 209 200 167 151 147 144 147 150 151 150 147 144 147 136 124 113 99 85 68 58 41 36 53 83 248 302 343 353
259 255 234 219 222 234 244 250 237 230 245 255 258 249 235 208 200 185 166 155 151 151 150 149 154 147 141 140 126 114 111 96 81 71 60 49 61 61 69 238 342 339 332 337
248 246 248 224 230 234 213 230 236 257 257 259 260 258 107 187 206 195 172 158 158 159 157 155 150 138 145 138 129 122 109 94 81 71 70 59 65 93 230 280 330 308 289 293
53 262 246 241 242 286 264 242 228 238 248 246 262 271 95 259 240 208 176 163 161 162 159 149 142 151 155 145 139 126 106 91 88 94 109 100 79 323 274 293 313 297 284 287
356 256 247 237 210 212 228 239 246 248 260 260 258 261 95 352 203 193 169 160 163 160 149 145 146 160 151 143 130 116 100 94 100 105 98 74 16 284 272 287 307 298 290 290
295 274 277 288 348 352 206 242 251 252 256 262 247 237 122 97 165 178 169 171 167 161 152 148 154 156 140 130 123 112 104 105 108 115 141 194 291 287 276 288 297 297 296 294
331 279 288 291 310 303 291 284 280 277 283 285 288 279 283 215 212 193 165 170 168 163 159 157 157 143 141 136 116 103 98 105 130 146 152 152 249 278 287 297 305 307 305 309
343 278 283 274 272 281 281 276 274 273 275 276 277 278 311 312 214 202 179 178 174 167 165 162 153 152 145 126 121 120 112 111 121 142 191 195 279 293 301 306 310 317 331 336
297 280 268 269 274 285 273 285 287 280 280 279 282 312 343 297 240 226 199 193 181 171 164 154 139 133 120 111 99 104 127 131 186 223 265 284 298 310 325 328 337 347 347 342
268 269 267 268 262 254 19 22 334 306 314 340 313 330 333 328 322 268 230 202 175 160 142 132 125 111 94 95 99 108 102 110 190 220 303 333 352 2 15 356 354 353 345 340
244 250 250 244 243 255 299 36 360 328 314 30 352 344 341 2 347 10 348 167 150 136 128 123 117 109 104 92 68 77 132 138 213 296 345 26 42 44 10 357 357 350 342 347
218 228 234 232 245 252 64 29 349 292 268 27 1 352 341 315 293 73 95 103 105 108 110 111 107 109 122 132 129 331 339 27 354 9 55 70 50 20 5 358 353 348 340 352
207 211 221 225 238 263 54 5 322 260 346 350 343 344 350 10 70 104 105 102 103 105 107 106 106 112 121 114 112 107 54 38 30 88 95 70 33 6 357 350 354 338 340 353
232 233 229 231 241 249 21 342 326 327 324 322 323 342 62 103 107 104 102 103 105 104 103 105 116 127 136 147 139 116 67 74 99 101 87 54 14 354 354 346 334 331 8 350
245 276 301 257 282 334 331 309 304 305 305 308 299 10 121 120 111 107 106 105 107 112 122 133 131 136 141 138 104 85 90 104 109 99 71 35 14 8 358 347 355 18 16 1
202 219 255 269 266 306 309 306 307 310 307 301 278 132 129 122 119 115 114 117 124 135 137 138 140 135 134 121 98 96 104 111 111 87 52 34 35 15 24 24 31 20 13 7
282 247 261 267 278 288 291 316 334 334 347 92 104 122 125 124 122 120 123 130 138 132 126 125 121 119 108 102 102 102 110 117 95 64 41 32 49 46 44 39 25 23 30 13
245 261 268 287 319 314 319 340 347 84 112 115 116 115 118 123 130 129 127 126 124 121 121 124 124 116 110 108 107 107 107 90 61 51 56 37 38 44 35 29 77 110 65 341
Height
1499 1499 1493 1490 1491 1493 1493 1496 1495 1491 1490 1494 1491 1490 1493 1496 1497 1496 1498 1502 1506 1511 1517 1519 1521 1525 1528 1531 1533 1534 1535 1536 1539 1543 1546 1546 1547 1548 1549 1550 1550 1550 1551 1552
1496 1494 1486 1486 1489 1495 1497 1499 1495 1489 1489 1492 1489 1490 1487 1494 1493 1493 1494 1499 1502 1507 1512 1514 1518 1522 1526 1529 1531 1533 1534 1535 1539 1542 1544 1545 1546 1546 1546 1546 1548 1549 1549 1549
1489 1483 1485 1490 1493 1496 1495 1495 1491 1490 1485 1489 1491 1491 1484 1484 1489 1490 1490 1492 1497 1502 1506 1509 1516 1519 1523 1526 1528 1531 1533 1534 1536 1537 1538 1541 1542 1543 1545 1546 1547 1547 1546 1546
1483 1481 1485 1489 1490 1491 1491 1485 1488 1489 1491 1487 1485 1495 1476 1475 1479 1482 1484 1486 1490 1496 1500 1505 1510 1514 1518 1522 1525 1527 1530 1532 1534 1536 1537 1541 1542 1543 1545 1546 1546 1545 1543 1542
1478 1478 1482 1486 1484 1485 1484 1480 1484 1485 1486 1488 1486 1492 1478 1470 1474 1471 1475 1479 1484 1489 1495 1500 1505 1509 1514 1520 1522 1523 1526 1529 1531 1534 1536 1539 1540 1542 1543 1544 1544 1543 1543 1541
1472 1474 1477 1477 1477 1479 1480 1481 1483 1483 1484 1493 1484 1483 1478 1463 1465 1461 1462 1475 1481 1488 1492 1496 1501 1506 1512 1517 1520 1522 1524 1527 1530 1533 1536 1536 1537 1538 1539 1538 1541 1542 1540 1538
1473 1472 1473 1475 1477 1479 1481 1486 1489 1488 1488 1485 1469 1472 1470 1457 1457 1458 1461 1473 1481 1487 1490 1494 1499 1504 1509 1513 1516 1520 1524 1527 1530 1532 1533 1533 1533 1533 1534 1531 1536 1538 1536 1533
1467 1478 1465 1471 1472 1472 1475 1481 1488 1489 1484 1473 1472 1475 1461 1455 1460 1463 1464 1471 1480 1486 1490 1495 1499 1503 1508 1512 1516 1520 1524 1526 1528 1529 1530 1530 1530 1529 1531 1529 1532 1534 1533 1530
1459 1464 1459 1462 1464 1467 1475 1472 1471 1477 1478 1484 1473 1463 1457 1456 1461 1463 1465 1474 1482 1486 1490 1494 1498 1503 1508 1514 1519 1521 1522 1524 1525 1525 1527 1527 1526 1526 1529 1528 1531 1533 1530 1530
1460 1470 1458 1457 1461 1462 1465 1462 1477 1479 1488 1490 1472 1464 1458 1454 1455 1459 1467 1478 1484 1488 1490 1493 1499 1506 1510 1514 1517 1518 1521 1521 1522 1524 1526 1526 1524 1526 1529 1531 1530 1530 1530 1528
1462 1469 1461 1459 1461 1457 1459 1463 1465 1463 1460 1472 1478 1462 1450 1450 1454 1456 1465 1475 1482 1485 1488 1493 1500 1506 1512 1514 1516 1515 1516 1518 1521 1523 1522 1523 1523 1525 1527 1529 1528 1529 1529 1527
1468 1467 1462 1453 1451 1452 1452 1450 1455 1465 1465 1461 1466 1462 1453 1455 1455 1457 1463 1473 1480 1484 1488 1494 1498 1502 1507 1510 1511 1513 1514 1516 1518 1520 1521 1522 1522 1526 1527 1527 1527 1527 1527 1526
1471 1467 1468 1461 1459 1455 1453 1453 1454 1457 1461 1458 1461 1458 1454 1455 1455 1457 1465 1474 1480 1485 1489 1493 1498 1504 1506 1509 1511 1512 1512 1515 1517 1519 1521 1522 1522 1524 1525 1526 1526 1526 1525 1524
1475 1466 1468 1469 1462 1460 1459 1459 1457 1457 1455 1453 1448 1449 1450 1456 1456 1459 1467 1476 1481 1485 1488 1493 1499 1505 1507 1509 1511 1510 1512 1514 1516 1517 1520 1522 1523 1524 1525 1525 1524 1523 1522 1521
1473 1467 1466 1464 1464 1464 1464 1463 1460 1458 1454 1458 1449 1448 1447 1452 1459 1462 1469 1475 1480 1484 1488 1492 1497 1500 1503 1507 1508 1511 1513 1513 1515 1517 1520 1521 1523 1524 1525 1525 1522 1520 1519 1517
1475 1471 1473 1469 1464 1466 1465 1462 1460 1459 1457 1457 1454 1451 1450 1455 1461 1464 1470 1474 1477 1481 1486 1491 1496 1499 1503 1504 1507 1509 1510 1514 1518 1520 1521 1521 1522 1522 1523 1522 1520 1517 1515 1513
1478 1475 1476 1471 1465 1470 1470 1458 1456 1454 1453 1453 1453 1456 1459 1459 1463 1466 1470 1475 1478 1482 1486 1492 1496 1500 1503 1504 1506 1508 1509 1513 1518 1521 1522 1521 1520 1520 1520 1520 1518 1515 1511 1509
1481 1480 1476 1472 1475 1484 1466 1465 1465 1464 1461 1462 1461 1461 1465 1464 1465 1469 1472 1475 1478 1482 1486 1491 1496 1499 1501 1505 1504 1508 1509 1512 1518 1520 1521 1520 1518 1517 1518 1518 1515 1512 1509 1506
1484 1482 1477 1481 1475 1468 1461 1470 1471 1470 1465 1471 1472 1469 1470 1471 1472 1473 1475 1476 1478 1481 1484 1489 1495 1499 1503 1505 1505 1510 1514 1513 1518 1520 1519 1517 1516 1516 1516 1515 1512 1509 1506 1504
1485 1483 1481 1479 1482 1478 1473 1476 1476 1476 1468 1474 1474 1472 1472 1473 1472 1474 1477 1477 1478 1481 1486 1491 1497 1501 1503 1504 1507 1515 1516 1515 1518 1520 1517 1516 1516 1515 1514 1512 1509 1507 1505 1502
1480 1479 1479 1479 1481 1470 1474 1477 1477 1475 1477 1477 1476 1473 1474 1475 1478 1480 1479 1480 1482 1485 1489 1494 1499 1502 1506 1506 1509 1514 1517 1517 1518 1518 1515 1516 1516 1514 1512 1510 1508 1506 1503 1500
1477 1474 1474 1473 1479 1486 1478 1477 1478 1476 1477 1477 1476 1474 1475 1476 1478 1480 1481 1483 1486 1489 1494 1498 1500 1504 1509 1511 1512 1516 1517 1517 1518 1517 1515 1516 1515 1512 1511 1509 1507 1505 1502 1498
1486 1481 1475 1475 1475 1477 1479 1479 1478 1477 1476 1475 1475 1475 1475 1478 1479 1481 1484 1488 1491 1494 1496 1500 1503 1508 1512 1514 1514 1517 1518 1518 1518 1518 1516 1515 1513 1511 1510 1509 1507 1504 1500 1498
1482 1485 1482 1479 1476 1475 1477 1476 1475 1474 1473 1472 1472 1474 1475 1478 1481 1484 1489 1492 1496 1499 1502 1505 1509 1511 1514 1515 1517 1519 1518 1518 1519 1518 1516 1514 1513 1511 1510 1509 1506 1503 1500 1497
1480 1485 1481 1476 1475 1474 1473 1473 1473 1473 1472 1472 1473 1476 1478 1480 1485 1488 1492 1497 1501 1504 1507 1509 1512 1514 1516 1518 1519 1519 1520 1520 1520 1518 1517 1516 1514 1512 1510 1507 1506 1503 1500 1497
1478 1477 1475 1471 1472 1476 1475 1475 1473 1473 1473 1476 1477 1480 1483 1486 1490 1495 1498 1502 1505 1508 1510 1513 1515 1517 1518 1520 1521 1521 1522 1522 1521 1520 1518 1516 1515 1513 1510 1508 1505 1502 1500 1497